Location: Caltech
(34.1382°N, 118.1253°W)
Time: 17:27:31
(UTC-07:00)

FENGYUN 3A - Visible Passes

Search period start: 27 August 2016 00:00
Search period end: 06 September 2016 00:00
Orbit: 819 x 834 km, 98.4° (Epoch: 27 August)

Date Brightness Start Highest point End Pass type
(mag) Time Alt. Az. Time Alt. Az. Time Alt. Az.
27 Aug 4.3 20:52:04 10° S 20:57:17 53° W 21:02:31 10° NNW visible
28 Aug 3.7 20:33:03 10° S 20:38:24 82° WSW 20:43:46 10° NNW visible
29 Aug 3.6 20:14:17 10° SSE 20:19:33 66° ENE 20:24:52 10° N visible
29 Aug 6.3 21:58:06 10° WSW 22:00:10 12° W 22:02:16 10° WNW visible
30 Aug 4.0 19:55:45 10° SE 20:00:46 43° ENE 20:05:48 10° N visible
30 Aug 6.0 21:37:22 10° SW 21:41:08 19° W 21:44:55 10° NW visible
31 Aug 4.6 19:37:31 10° SE 19:42:01 29° ENE 19:46:33 10° NNE visible
31 Aug 5.3 21:17:30 10° SSW 21:22:08 30° W 21:26:47 10° NW visible
01 Sep 4.6 20:58:05 10° S 21:03:11 46° W 21:08:19 10° NNW visible
02 Sep 3.9 20:38:58 10° S 20:44:17 71° WSW 20:49:38 10° NNW visible
03 Sep 3.6 20:20:06 10° SSE 20:25:25 76° ENE 20:30:47 10° N visible
03 Sep 6.6 22:05:40 10° W 22:06:08 10° W 22:06:37 10° W visible
04 Sep 3.9 20:01:29 10° SSE 20:06:37 50° ENE 20:11:46 10° N visible
04 Sep 6.1 21:43:44 10° SW 21:47:04 17° W 21:50:25 10° NW visible
05 Sep 4.4 19:43:09 10° SE 19:47:52 33° ENE 19:52:35 10° N visible
05 Sep 5.6 21:23:40 10° SSW 21:28:03 26° W 21:32:28 10° NW visible
